Location: Mount Cross
(36.6390°N, 79.4878°W)
Time: 05:01:03
(UTC+00:00)

Vanguard 2 Rocket - Visible Passes

Search period start: 27 February 2024 00:00
Search period end: 08 March 2024 00:00
Orbit: 554 x 3309 km, 32.9° (Epoch: 26 February)

Date Brightness Start Highest point End Pass type
(mag) Time Alt. Az. Time Alt. Az. Time Alt. Az.
27 Feb 10.3 01:39:09 10° W 01:54:23 37° SW 02:07:58 17° SSE visible
27 Feb 10.9 04:04:25 10° WSW 04:10:02 12° SW 04:13:38 11° SW visible
28 Feb 10.1 00:35:51 10° W 00:50:31 46° SSW 01:09:05 10° SE visible
28 Feb 10.8 02:55:04 10° W 03:06:46 20° SW 03:16:07 14° SSW visible
28 Feb 9.9 23:33:15 10° W 23:46:40 55° SSW 00:05:43 10° SE visible
29 Feb 10.6 01:49:44 10° W 02:03:15 28° SW 02:18:33 10° SSE visible
01 Mar 10.4 00:45:58 10° W 00:59:35 36° SSW 01:16:41 10° SSE visible
01 Mar 11.0 03:09:38 10° WSW 03:15:38 12° SW 03:21:46 10° SSW visible
01 Mar 10.1 23:43:09 10° W 23:55:53 45° SSW 00:13:47 10° SE visible
02 Mar 10.9 02:01:22 10° WSW 02:12:11 19° SW 02:24:17 10° S visible
03 Mar 10.6 00:56:38 10° W 01:08:38 27° SW 01:23:28 10° SSE visible
03 Mar 10.4 23:53:20 10° W 00:05:06 34° SSW 00:21:15 10° SSE visible
04 Mar 11.1 02:16:12 10° WSW 02:21:17 12° SW 02:26:39 10° SSW visible
05 Mar 10.9 01:08:23 10° WSW 01:17:49 18° SW 01:28:56 10° S visible
06 Mar 10.7 00:04:07 10° W 00:14:22 25° SSW 00:27:52 10° SSE visible
07 Mar 11.2 01:24:47 10° SW 01:27:08 10° SW 01:29:35 10° SSW visible
